Clinton, MO

5:31 PM CST on November 21, 2019 (GMT -0600)
Clinton Memorial

Weather History for KGLY - September, 2019

Change the Weather History Date:

Tuesday, September 10, 2019

  Actual Average (WUND) Record (WUND)
Temperature  
Mean Temperature 80 °F -  
Max Temperature 87 °F - - (-1)
Min Temperature 73 °F - - (-1)
Cooling Degree Days 15    
Growing Degree Days 30 (Base 50)    
Moisture  
Dew Point 72 °F    
Average Humidity 80    
Maximum Humidity 94    
Minimum Humidity 62    
Precipitation  
Precipitation 0.00 in - - ()
Sea Level Pressure  
Sea Level Pressure 30.07 in    
Wind  
Wind Speed 6 mph (SSW)    
Max Wind Speed 12 mph    
Max Gust Speed 16 mph    
Visibility 9 miles    
Events      
Averages and records for this station are not official NWS values.
T = Trace of Precipitation, MM = Missing Value Source: NWS Daily Summary

Daily Weather History Graph

Daily Weather History Graph

Search for Another Location

Airport or City:

Astronomy

Sep. 10, 2019 Rise Set
Actual Time 6:51 AM CDT 7:30 PM CDT
Civil Twilight 6:25 AM CDT 7:57 PM CDT
Nautical Twilight 5:53 AM CDT 8:29 PM CDT
Astronomical Twilight 5:21 AM CDT 9:01 PM CDT
Moon 6:04 PM CDT (9/10) 3:22 AM CDT (9/10)
Length of Visible Light 13h 32m
Length of Day
12h 39m
Waxing Gibbous, 89% of the Moon is Illuminated
Sep 10
Waxing Gibbous
Sep 13
Full
Sep 21
Last Quarter
Sep 28
New
Oct 5
First Quarter

Hourly Weather History & Observations

Time (CDT) Temp. Heat Index Dew Point Humidity Pressure Visibility Wind Dir Wind Speed Gust Speed Precip Events Conditions
12:15 AM 75.2 °F - 71.6 °F 89% 30.02 in 10.0 mi South 5.8 mph - N/A   Clear
12:35 AM 75.2 °F - 71.6 °F 89% 30.02 in 10.0 mi South 4.6 mph - N/A   Scattered Clouds
12:55 AM 75.2 °F - 71.6 °F 89% 30.03 in 9.0 mi Calm Calm - N/A   Partly Cloudy
1:15 AM 73.4 °F - 71.6 °F 94% 30.03 in 9.0 mi Calm Calm - N/A   Clear
1:35 AM 73.4 °F - 71.6 °F 94% 30.04 in 9.0 mi South 5.8 mph - N/A   Clear
1:55 AM 73.4 °F - 71.6 °F 94% 30.03 in 9.0 mi South 6.9 mph - N/A   Clear
2:55 AM 75.2 °F - 71.6 °F 89% 30.03 in 8.0 mi South 6.9 mph - N/A   Clear
3:15 AM 75.2 °F - 71.6 °F 89% 30.02 in 9.0 mi South 6.9 mph - N/A   Clear
3:35 AM 73.4 °F - 69.8 °F 88% 30.03 in 9.0 mi South 8.1 mph - N/A   Clear
3:55 AM 73.4 °F - 69.8 °F 88% 30.03 in 9.0 mi South 8.1 mph - N/A   Clear
4:15 AM 73.4 °F - 69.8 °F 88% 30.04 in 9.0 mi South 8.1 mph - N/A   Clear
4:55 AM 75.2 °F - 69.8 °F 83% 30.04 in 10.0 mi SSW 6.9 mph - N/A   Clear
5:15 AM 75.2 °F - 69.8 °F 83% 30.03 in 10.0 mi SSW 8.1 mph - N/A   Clear
5:35 AM 73.4 °F - 69.8 °F 88% 30.03 in 10.0 mi SSW 6.9 mph - N/A   Clear
5:55 AM 73.4 °F - 68.0 °F 83% 30.04 in 9.0 mi SW 6.9 mph - N/A   Clear
6:15 AM 73.4 °F - 68.0 °F 83% 30.04 in 10.0 mi SW 5.8 mph - N/A   Clear
6:35 AM 73.4 °F - 68.0 °F 83% 30.04 in 10.0 mi SW 8.1 mph - N/A   Clear
6:55 AM 73.4 °F - 68.0 °F 83% 30.05 in 9.0 mi SSW 4.6 mph - N/A   Clear
7:15 AM 73.4 °F - 68.0 °F 83% 30.06 in 8.0 mi South 5.8 mph - N/A   Clear
7:35 AM 73.4 °F - 68.0 °F 83% 30.07 in 8.0 mi South 4.6 mph - N/A   Clear
7:55 AM 75.2 °F - 69.8 °F 83% 30.08 in 8.0 mi South 6.9 mph - N/A   Clear
8:55 AM 75.2 °F - 69.8 °F 83% 30.09 in 7.0 mi SSW 6.9 mph - N/A   Clear
9:15 AM 77.0 °F - 69.8 °F 78% 30.10 in 8.0 mi SW 9.2 mph - N/A   Clear
9:35 AM 77.0 °F - 69.8 °F 78% 30.10 in 9.0 mi SSW 8.1 mph 16.1 mph N/A   Clear
10:15 AM 80.6 °F 84.6 °F 71.6 °F 74% 30.11 in 8.0 mi SW 9.2 mph - N/A   Clear
10:35 AM 80.6 °F 84.6 °F 71.6 °F 74% 30.11 in 9.0 mi SW 8.1 mph - N/A   Clear
10:55 AM 80.6 °F 84.6 °F 71.6 °F 74% 30.11 in 8.0 mi SSW 6.9 mph - N/A   Clear
11:15 AM 82.4 °F 87.2 °F 71.6 °F 70% 30.11 in 8.0 mi SW 9.2 mph - N/A   Clear
11:35 AM 82.4 °F 87.2 °F 71.6 °F 70% 30.11 in 9.0 mi SSW 8.1 mph - N/A   Clear
11:55 AM 84.2 °F 89.6 °F 71.6 °F 66% 30.11 in 9.0 mi SSW 8.1 mph - N/A   Clear
12:15 PM 84.2 °F 89.6 °F 71.6 °F 66% 30.10 in 9.0 mi SW 9.2 mph - N/A   Clear
12:35 PM 84.2 °F 90.9 °F 73.4 °F 70% 30.10 in 10.0 mi SSW 8.1 mph - N/A   Clear
12:55 PM 84.2 °F 90.9 °F 73.4 °F 70% 30.10 in 9.0 mi SSW 9.2 mph - N/A   Clear
1:35 PM 86.0 °F 93.4 °F 73.4 °F 66% 30.10 in 9.0 mi SSW 10.4 mph - N/A   Clear
1:55 PM 84.2 °F 90.9 °F 73.4 °F 70% 30.09 in 9.0 mi South 11.5 mph 16.1 mph N/A   Clear
2:15 PM 86.0 °F 93.4 °F 73.4 °F 66% 30.09 in 9.0 mi SSW 10.4 mph - N/A   Clear
2:35 PM 84.2 °F 90.9 °F 73.4 °F 70% 30.08 in 10.0 mi SSW 6.9 mph - N/A   Clear
3:35 PM 87.8 °F 95.6 °F 73.4 °F 62% 30.07 in 9.0 mi SSW 10.4 mph - N/A   Clear
3:55 PM 87.8 °F 95.6 °F 73.4 °F 62% 30.07 in 10.0 mi South 8.1 mph - N/A   Clear
4:15 PM 87.8 °F 97.6 °F 75.2 °F 66% 30.07 in 9.0 mi South 9.2 mph - N/A   Clear
4:35 PM 86.0 °F 93.4 °F 73.4 °F 66% 30.07 in 10.0 mi SSW 8.1 mph - N/A   Clear
4:55 PM 86.0 °F 93.4 °F 73.4 °F 66% 30.07 in 10.0 mi South 5.8 mph - N/A   Partly Cloudy
5:15 PM 84.2 °F 90.9 °F 73.4 °F 70% 30.07 in 10.0 mi South 5.8 mph - N/A   Clear
5:55 PM 86.0 °F 93.4 °F 73.4 °F 66% 30.06 in 9.0 mi South 4.6 mph - N/A   Clear
6:55 PM 80.6 °F 85.4 °F 73.4 °F 79% 30.05 in 9.0 mi Calm Calm - N/A   Clear
7:15 PM 80.6 °F 85.4 °F 73.4 °F 79% 30.05 in 10.0 mi Calm Calm - N/A   Clear
7:35 PM 78.8 °F - 73.4 °F 83% 30.05 in 10.0 mi Calm Calm - N/A   Clear
7:55 PM 77.0 °F - 73.4 °F 89% 30.05 in 10.0 mi Calm Calm - N/A   Clear
8:15 PM 77.0 °F - 73.4 °F 89% 30.05 in 10.0 mi SSE 3.5 mph - N/A   Clear
8:35 PM 75.2 °F - 73.4 °F 94% 30.05 in 10.0 mi SSE 3.5 mph - N/A   Clear
8:55 PM 75.2 °F - 71.6 °F 89% 30.06 in 10.0 mi Calm Calm - N/A   Clear
9:15 PM 75.2 °F - 71.6 °F 89% 30.07 in 10.0 mi SSE 4.6 mph - N/A   Clear
9:35 PM 75.2 °F - 71.6 °F 89% 30.07 in 10.0 mi SSE 6.9 mph - N/A   Clear
9:55 PM 75.2 °F - 71.6 °F 89% 30.08 in 10.0 mi South 4.6 mph - N/A   Clear
10:15 PM 75.2 °F - 71.6 °F 89% 30.08 in 10.0 mi South 5.8 mph - N/A   Clear
10:35 PM 75.2 °F - 71.6 °F 89% 30.08 in 10.0 mi South 5.8 mph - N/A   Clear
11:55 PM 73.4 °F - 71.6 °F 94% 30.09 in 10.0 mi SSE 4.6 mph - N/A   Clear